Flight Track Log - Related Links

Times and Time Zones

All times are in EDT time to prevent confusion due to time zone crossing. See the FIV571 flight status page for this flight to view local times or setup timezone preferences in your user account.

Time Position Orientation Groundspeed Altitude Reporting Facility
EDT Latitude Longitude Course Direction KTS MPH feet Rate Location/Type
Thu 07:53:02 PM 32.7389 -117.2211 286° West 188 216 2,100  Level Los Angeles Center
Thu 07:54:04 PM 32.7581 -117.3028 286° West 247 284 5,700 3,823 Climbing Los Angeles Center
Thu 07:55:06 PM 32.6953 -117.3264 198° South 270 311 10,000 3,145 Climbing Los Angeles Center
Thu 07:56:08 PM 32.6467 -117.2433 125° Southeast 306 352 12,200 1,984 Climbing Los Angeles Center
Thu 07:57:10 PM 32.6292 -117.1036 98° East 351 404 14,100 1,645 Climbing Los Angeles Center
Thu 07:58:12 PM 32.6103 -116.9769 100° East 380 437 15,600 1,452 Climbing Los Angeles Center
Thu 07:59:14 PM 32.6233 -116.8461 83° East 398 458 17,100 1,403 Climbing Los Angeles Center
Thu 08:00:16 PM 32.6367 -116.7150 83° East 403 464 18,500 1,452 Climbing Los Angeles Center
Thu 08:01:18 PM 32.6508 -116.5772 83° East 419 482 20,100 1,584 Climbing Los Angeles Center
Thu 08:02:21 PM 32.6653 -116.4114 84° East 430 495 21,800 1,296 Climbing Los Angeles Center
Thu 08:03:23 PM 32.6786 -116.2683 84° East 443 510 22,800 968 Climbing Los Angeles Center
Thu 08:04:25 PM 32.6925 -116.1222 84° East 451 519 23,800 968 Climbing Los Angeles Center
Thu 08:05:27 PM 32.7064 -115.9733 84° East 459 528 24,800 1,065 Climbing Los Angeles Center
Thu 08:06:29 PM 32.7236 -115.7931 83° East 462 532 26,000 1,016 Climbing Los Angeles Center
Thu 08:07:31 PM 32.7369 -115.6403 84° East 464 534 26,900 484 Climbing Los Angeles Center
Thu 08:08:33 PM 32.7497 -115.4836 84° East 473 544 27,000 48 Climbing Los Angeles Center
Thu 08:09:35 PM 32.7539 -115.3289 88° East 473 544 27,000  Level Los Angeles Center
Thu 08:10:37 PM 32.7592 -115.1814 88° East 457 526 27,000  Level Los Angeles Center
Thu 08:11:40 PM 32.7625 -115.0322 88° East 453 521 27,000  Level Los Angeles Center
Thu 08:12:42 PM 32.7683 -114.8522 88° East 454 522 27,000  Level Los Angeles Center
Thu 08:13:44 PM 32.7697 -114.7064 89° East 446 513 27,000  Level Los Angeles Center
Thu 08:14:46 PM 32.7722 -114.5603 89° East 443 510 27,000  Level Los Angeles Center
Thu 08:15:48 PM 32.7758 -114.4136 88° East 444 511 27,000 -48 Level Los Angeles Center
Thu 08:16:51 PM 32.7761 -114.2647 90° East 448 516 26,900 -960 Descending Los Angeles Center
Thu 08:17:53 PM 32.7772 -114.0861 90° East 451 519 25,000 -919 Descending Los Angeles Center
Thu 08:18:55 PM 32.7814 -113.9433 88° East 440 506 25,000 -97 Level Los Angeles Center
Thu 08:19:57 PM 32.8033 -113.8022 79° East 434 499 24,800 -484 Descending Los Angeles Center
Thu 08:20:59 PM 32.8378 -113.6694 73° East 420 483 24,000 -490 Descending Los Angeles Center
Thu 08:21:35 PM 32.8792 -113.6008 54° Northeast 425 489 24,000 -612 Level Albuquerque Center
Thu 08:22:37 PM 32.9567 -113.5006 47° Northeast 416 479 23,000 -1,210 Descending Albuquerque Center
Thu 08:23:39 PM 33.0331 -113.3953 49° Northeast 416 479 21,500 -1,452 Descending Albuquerque Center
Thu 08:24:41 PM 33.1058 -113.2967 49° Northeast 402 463 20,000 -1,561 Descending Albuquerque Center
Thu 08:25:42 PM 33.1747 -113.2044 48° Northeast 381 438 18,300 -1,854 Descending Albuquerque Center
Thu 08:26:44 PM 33.2525 -113.0986 49° Northeast 358 412 16,200 -1,597 Descending Albuquerque Center
Thu 08:27:46 PM 33.2789 -112.9942 73° East 342 394 15,000 -581 Descending Albuquerque Center
Thu 08:28:48 PM 33.2783 -112.8828 90° East 335 386 15,000  Level Albuquerque Center
Thu 08:29:49 PM 33.2817 -112.7717 88° East 336 387 15,000 -146 Level Albuquerque Center
Thu 08:30:51 PM 33.2828 -112.6603 89° East 335 386 14,700 -871 Descending Albuquerque Center
Thu 08:31:53 PM 33.2872 -112.5592 87° East 327 376 13,200 -1,645 Descending Albuquerque Center
Thu 08:32:55 PM 33.2897 -112.4383 89° East 308 354 11,300 -1,161 Descending Albuquerque Center
Thu 08:33:57 PM 33.2925 -112.3419 88° East 295 339 10,800 -780 Descending Albuquerque Center
Thu 08:34:58 PM 33.3003 -112.2556 84° East 269 310 9,700 -871 Descending Albuquerque Center
Thu 08:36:01 PM 33.3050 -112.1714 86° East 258 297 9,000 -387 Descending Albuquerque Center
Thu 08:37:02 PM 33.3125 -112.0878 84° East 255 293 8,900 -732 Descending Albuquerque Center
Thu 08:38:04 PM 33.3342 -112.0081 72° East 252 290 7,500 -1,073 Descending Albuquerque Center
Thu 08:39:05 PM 33.3475 -111.9192 80° East 223 257 6,700 -976 Descending Albuquerque Center
Thu 08:40:07 PM 33.3447 -111.8497 93° East 211 243 5,500 -1,113 Descending Albuquerque Center
Thu 08:41:09 PM 33.3769 -111.8125 44° Northeast 201 231 4,400 -1,065 Descending Albuquerque Center
Thu 08:42:11 PM 33.4119 -111.8594 312° West 200 230 3,300 -1,043 Descending Albuquerque Center
Thu 08:42:41 PM 33.4333 -111.8833 317° Northwest 174 200 2,800 -791 Descending Phoenix TRACON
Thu 08:43:42 PM 33.4333 -111.9500 270° West 165 190 2,100 -658 Descending Phoenix TRACON
Thu 08:45:16 PM 33.4283 -112.0197 265° West 150 173 1,100 -638 Descending Albuquerque Center

Login

Don't have an account? Register now (free) for customized features, flight alerts, and more!